Weather observations for the past three days for
Oakdale, Allen Parish Airport
| Date | Time (cdt) | Wind (mph) | Vis. (mi.) | Weather | Sky Cond. | Temperature (ºF) | Relative Humidity | Wind Chill (°F) | Heat Index (°F) | Pressure | Precipitation (in) | ||||||
|---|---|---|---|---|---|---|---|---|---|---|---|---|---|---|---|---|---|
| Air | Dwpt | 6 hour | altimeter (in) | sea level (mb) | 1 hr | 3 hr | 6 hr | ||||||||||
| Max. | Min. | ||||||||||||||||
| 08 | 06:15 | Calm | 10.00 | Overcast | OVC011 | 64.4 | 59 | 83% | 29.93 | 0.0 | |||||||
| 08 | 05:55 | Calm | 10.00 | Overcast | OVC013 | 64.4 | 59 | 83% | 29.95 | 0.0 | |||||||
| 08 | 05:35 | Calm | 10.00 | Overcast | SCT016 OVC022 | 64.4 | 59 | 83% | 29.95 | 0.0 | |||||||
| 08 | 05:15 | SE 5 | 10.00 | Overcast | OVC020 | 64.4 | 59 | 83% | 29.95 | 0.0 | |||||||
| 08 | 04:55 | Calm | 10.00 | Overcast | OVC018 | 64.4 | 59 | 83% | 29.95 | 0.0 | |||||||
| 08 | 04:35 | N 3 | 10.00 | Overcast | SCT016 OVC023 | 64.4 | 59 | 83% | 29.94 | 0.0 | |||||||
| 08 | 04:15 | Calm | 10.00 | Overcast | BKN016 OVC023 | 64.4 | 59 | 83% | 29.94 | 0.0 | |||||||
| 08 | 03:55 | Calm | 10.00 | Overcast | OVC016 | 64.4 | 59 | 83% | 29.95 | 0.0 | |||||||
| 08 | 03:35 | Calm | 10.00 | Overcast | OVC016 | 64.4 | 59 | 83% | 29.93 | 0.0 | |||||||
| 08 | 03:15 | Calm | 10.00 | Overcast | OVC018 | 64.4 | 59 | 83% | 29.95 | 0.0 | |||||||
| 08 | 02:55 | N 5 | 10.00 | Overcast | OVC018 | 62.6 | 59 | 88% | 29.95 | 0.0 | |||||||
| 08 | 02:35 | Calm | 10.00 | Overcast | OVC020 | 62.6 | 59 | 88% | 29.96 | 0.0 | |||||||
| 08 | 02:15 | N 3 | 10.00 | Partly Cloudy | SCT020 | 62.6 | 57.2 | 83% | 29.97 | 0.0 | |||||||
| 08 | 01:55 | Calm | 10.00 | Fair | CLR | 62.6 | 57.2 | 83% | 29.93 | 0.0 | |||||||
| 08 | 01:35 | E 3 | 10.00 | Fair | CLR | 62.6 | 59 | 88% | 29.93 | 0.0 | |||||||
| 08 | 01:15 | Calm | 10.00 | Fair | CLR | 62.6 | 59 | 88% | 29.97 | 0.0 | |||||||
| 08 | 00:55 | Calm | 10.00 | Fair | CLR | 62.6 | 59 | 88% | 29.97 | 0.0 | |||||||
| 08 | 00:35 | Calm | 10.00 | Fair | CLR | 62.6 | 59 | 88% | 29.96 | 0.0 | |||||||
| 08 | 00:15 | Calm | 10.00 | Partly Cloudy | SCT049 | 62.6 | 59 | 88% | 29.99 | 0.0 | |||||||
| 07 | 23:55 | Calm | 10.00 | Fair | CLR | 62.6 | 59 | 88% | 30 | 0.0 | |||||||
| 07 | 23:35 | Calm | 10.00 | Fair | CLR | 62.6 | 59 | 88% | 29.99 | 0.0 | |||||||
| 07 | 23:15 | Calm | 10.00 | Fair | CLR | 62.6 | 59 | 88% | 30 | 0.0 | |||||||
| 07 | 22:55 | Calm | 10.00 | Fair | CLR | 62.6 | 59 | 88% | 30 | 0.0 | |||||||
| 07 | 22:35 | Calm | 10.00 | Fair | CLR | 62.6 | 59 | 88% | 29.98 | 0.0 | |||||||
| 07 | 22:15 | Calm | 10.00 | Fair | CLR | 62.6 | 59 | 88% | 29.97 | 0.0 | |||||||
| 07 | 21:55 | Calm | 10.00 | Fair | CLR | 62.6 | 59 | 88% | 29.98 | 0.0 | |||||||
| 07 | 21:35 | Calm | 10.00 | Fair | CLR | 64.4 | 59 | 83% | 29.98 | 0.0 | |||||||
| 07 | 21:15 | Calm | 10.00 | Fair | CLR | 64.4 | 59 | 83% | 29.97 | 0.0 | |||||||
| 07 | 20:55 | Calm | 10.00 | Fair | CLR | 64.4 | 59 | 83% | 29.97 | 0.0 | |||||||
| 07 | 20:35 | Calm | 10.00 | Fair | CLR | 64.4 | 60.8 | 88% | 29.97 | 0.0 | |||||||
| 07 | 20:15 | Calm | 10.00 | Fair | CLR | 66.2 | 60.8 | 83% | 29.96 | 0.0 | |||||||
| 07 | 19:55 | Calm | 10.00 | Fair | CLR | 66.2 | 60.8 | 83% | 29.96 | 0.0 | |||||||
| 07 | 19:35 | NE 3 | 10.00 | Fair | CLR | 68 | 60.8 | 78% | 29.97 | 0.0 | |||||||
| 07 | 19:15 | Calm | 10.00 | Fair | CLR | 68 | 60.8 | 78% | 29.96 | 0.0 | |||||||
| 07 | 18:55 | Calm | 10.00 | Fair | CLR | 69.8 | 60.8 | 73% | 29.95 | 0.0 | |||||||
| 07 | 18:35 | NE 3 | 10.00 | Fair | CLR | 69.8 | 60.8 | 73% | 29.96 | 0.0 | |||||||
| 07 | 18:15 | NE 5 | 10.00 | Fair | CLR | 71.6 | 59 | 65% | 29.96 | 0.0 | |||||||
| 07 | 17:55 | NE 8 | 10.00 | Fair | CLR | 73.4 | 59 | 61% | 29.96 | 0.0 | |||||||
| 07 | 17:35 | NE 6 | 10.00 | Fair | CLR | 73.4 | 60.8 | 65% | 29.96 | 0.0 | |||||||
| 07 | 17:15 | N 6 | 10.00 | Fair | CLR | 75.2 | 59 | 57% | 78 | 29.96 | 0.0 | ||||||
| 07 | 16:55 | NE 8 | 10.00 | Fair | CLR | 75.2 | 60.8 | 61% | 77 | 29.96 | 0.0 | ||||||
| 07 | 16:35 | NE 6 | 10.00 | Fair | CLR | 75.2 | 60.8 | 61% | 77 | 29.96 | 0.0 | ||||||
| 07 | 16:15 | E 6 | 10.00 | Fair | CLR | 75.2 | 60.8 | 61% | 77 | 29.96 | 0.0 | ||||||
| 07 | 15:55 | NE 7 | 10.00 | Fair | CLR | 75.2 | 60.8 | 61% | 77 | 29.97 | 0.0 | ||||||
| 07 | 15:35 | N 7 | 10.00 | Fair | CLR | 77 | 60.8 | 57% | 79 | 29.97 | 0.0 | ||||||
| 07 | 15:15 | N 5 | 10.00 | Fair | CLR | 75.2 | 60.8 | 61% | 77 | 29.97 | 0.0 | ||||||
| 07 | 14:55 | N 6 | 10.00 | Fair | CLR | 75.2 | 60.8 | 61% | 77 | 29.97 | 0.0 | ||||||
| 07 | 14:35 | NE 8 | 10.00 | Fair | CLR | 75.2 | 60.8 | 61% | 77 | 29.98 | 0.0 | ||||||
| 07 | 14:15 | N 8 | 10.00 | Fair | CLR | 73.4 | 60.8 | 65% | 29.98 | 0.0 | |||||||
| 07 | 13:55 | N 7 | 10.00 | Fair | CLR | 71.6 | 59 | 65% | 29.99 | 0.0 | |||||||
| 07 | 13:35 | N 6 | 10.00 | Partly Cloudy | SCT014 | 69.8 | 59 | 69% | 29.99 | 0.0 | |||||||
| 07 | 13:15 | N 7 | 10.00 | Overcast | OVC014 | 68 | 59 | 73% | 30 | 0.0 | |||||||
| 07 | 12:55 | N 8 | 10.00 | Overcast | OVC012 | 66.2 | 57.2 | 73% | 30 | 0.0 | |||||||
| 07 | 12:35 | N 10 | 10.00 | Overcast | OVC010 | 64.4 | 57.2 | 78% | 30.01 | 0.0 | |||||||
| 07 | 12:15 | N 8 | 10.00 | Overcast | OVC010 | 64.4 | 57.2 | 78% | 30.02 | 0.0 | |||||||
| 07 | 11:55 | N 9 | 10.00 | Overcast | OVC010 | 62.6 | 57.2 | 83% | 30.03 | 0.0 | |||||||
| 07 | 11:35 | N 5 | 10.00 | Overcast | OVC010 | 64.4 | 57.2 | 78% | 30.01 | 0.0 | |||||||
| 07 | 11:15 | NW 6 | 10.00 | Overcast | OVC010 | 62.6 | 57.2 | 83% | 30.02 | 0.0 | |||||||
| 07 | 10:55 | N 7 | 10.00 | Overcast | OVC008 | 62.6 | 57.2 | 83% | 30.03 | 0.0 | |||||||
| 07 | 10:35 | N 6 | 10.00 | Overcast | OVC008 | 62.6 | 57.2 | 83% | 30.02 | 0.0 | |||||||
| 07 | 10:15 | N 5 | 10.00 | Overcast | OVC008 | 62.6 | 57.2 | 83% | 30.02 | 0.0 | |||||||
| 07 | 09:55 | N 5 | 10.00 | Overcast | OVC006 | 60.8 | 57.2 | 88% | 30.02 | 0.0 | |||||||
| 07 | 09:35 | N 5 | 10.00 | Overcast | OVC006 | 60.8 | 55.4 | 83% | 30.02 | 0.0 | |||||||
| 07 | 09:15 | NE 5 | 10.00 | Overcast | OVC006 | 60.8 | 55.4 | 83% | 30.01 | 0.0 | |||||||
| 07 | 08:55 | NE 9 | 10.00 | Overcast | OVC006 | 59 | 55.4 | 88% | 30.01 | 0.0 | |||||||
| 07 | 08:35 | N 5 | 10.00 | Overcast | OVC006 | 60.8 | 57.2 | 88% | 30.01 | 0.0 | |||||||
| 07 | 08:15 | N 6 | 10.00 | Overcast | OVC006 | 59 | 55.4 | 88% | 30.01 | 0.0 | |||||||
| 07 | 07:55 | N 6 | 10.00 | Overcast | OVC006 | 59 | 55.4 | 88% | 30.01 | 0.0 | |||||||
| 07 | 07:35 | N 5 | 10.00 | Overcast | OVC006 | 59 | 55.4 | 88% | 29.99 | 0.0 | |||||||
| 07 | 07:15 | NE 3 | 10.00 | Overcast | OVC004 | 59 | 55.4 | 88% | 29.98 | 0.0 | |||||||
| 07 | 06:55 | Calm | 10.00 | Overcast | OVC004 | 59 | 55.4 | 88% | 29.98 | 0.0 | |||||||
| 07 | 06:35 | N 6 | 10.00 | Overcast | OVC004 | 59 | 55.4 | 88% | 29.97 | 0.0 | |||||||
| 07 | 06:15 | N 5 | 10.00 | Overcast | OVC004 | 59 | 55.4 | 88% | 29.97 | 0.0 | |||||||
| 07 | 05:55 | N 7 | 10.00 | Overcast | OVC006 | 59 | 55.4 | 88% | 29.97 | 0.0 | |||||||
| 07 | 05:35 | N 9 | 10.00 | Overcast | OVC004 | 59 | 55.4 | 88% | 29.95 | 0.0 | |||||||
| 07 | 05:15 | N 8 | 10.00 | Overcast | OVC004 | 59 | 55.4 | 88% | 29.96 | 0.0 | |||||||
| 07 | 04:55 | N 8 | 10.00 | Overcast | OVC004 | 59 | 57.2 | 94% | 29.94 | 0.0 | |||||||
| 07 | 04:35 | N 6 | 7.00 | Overcast | OVC004 | 59 | 57.2 | 94% | 29.95 | 0.0 | |||||||
| 07 | 04:15 | N 12 G 17 | 7.00 | Overcast | OVC004 | 59 | 57.2 | 94% | 29.93 | 0.0 | |||||||
| 07 | 03:55 | N 9 | 4.00 | Fog/Mist | OVC004 | 60.8 | 57.2 | 88% | 29.93 | 0.0 | |||||||
| 07 | 03:35 | N 7 | 4.00 | Fog/Mist | OVC004 | 60.8 | 59 | 94% | 29.92 | 0.0 | |||||||
| 07 | 03:15 | NW 9 | 5.00 | Fog/Mist | OVC004 | 62.6 | 59 | 88% | 29.93 | 0.0 | |||||||
| 07 | 02:55 | N 7 | 10.00 | Overcast | OVC006 | 62.6 | 59 | 88% | 29.92 | 0.0 | |||||||
| 07 | 02:35 | N 7 | 10.00 | Overcast | OVC006 | 62.6 | 59 | 88% | 29.92 | 0.0 | |||||||
| 07 | 02:15 | N 6 | 10.00 | Overcast | OVC006 | 62.6 | 59 | 88% | 29.93 | 0.0 | |||||||
| 07 | 01:55 | N 6 | 10.00 | Overcast | OVC004 | 62.6 | 60.8 | 94% | 29.92 | 0.0 | |||||||
| 07 | 01:35 | N 7 | 7.00 | Overcast | OVC004 | 64.4 | 60.8 | 88% | 29.92 | 0.0 | |||||||
| 07 | 01:15 | N 7 | 10.00 | Overcast | OVC004 | 64.4 | 62.6 | 94% | 29.92 | 0.0 | |||||||
| 07 | 00:55 | N 5 | 10.00 | Overcast | OVC004 | 66.2 | 62.6 | 88% | 29.92 | 0.0 | |||||||
| 07 | 00:35 | N 9 | 7.00 | Rain | OVC004 | 66.2 | 64.4 | 94% | 29.92 | 0.0 | |||||||
| 07 | 00:15 | N 7 | 10.00 | Overcast | OVC006 | 68 | 64.4 | 88% | 29.91 | 0.0 | |||||||
| 06 | 23:55 | N 8 | 10.00 | Overcast | OVC006 | 69.8 | 66.2 | 88% | 29.9 | 0.0 | |||||||
| 06 | 23:35 | N 8 | 10.00 | Overcast | OVC006 | 69.8 | 68 | 94% | 29.89 | 0.0 | |||||||
| 06 | 23:15 | N 6 | 10.00 | Overcast | OVC006 | 71.6 | 68 | 88% | 29.89 | 0.0 | |||||||
| 06 | 22:55 | Calm | 7.00 | Overcast | OVC008 | 77 | 75.2 | 94% | 78 | 29.87 | 0.0 | ||||||
| 06 | 22:35 | Calm | 7.00 | Overcast | BKN010 BKN023 OVC050 | 77 | 73.4 | 89% | 78 | 29.87 | 0.0 | ||||||
| 06 | 22:15 | Calm | 7.00 | Overcast | BKN010 BKN027 OVC050 | 77 | 75.2 | 94% | 78 | 29.86 | 0.0 | ||||||
| 06 | 21:55 | Calm | 7.00 | Overcast | OVC012 | 78.8 | 75.2 | 89% | 82 | 29.86 | 0.0 | ||||||
| 06 | 21:35 | Calm | 7.00 | Overcast | BKN012 BKN017 OVC035 | 78.8 | 75.2 | 89% | 82 | 29.85 | 0.0 | ||||||
| 06 | 21:15 | S 3 | 7.00 | Overcast | SCT013 BKN023 OVC037 | 78.8 | 75.2 | 89% | 82 | 29.84 | 0.0 | ||||||
| 06 | 20:55 | Calm | 10.00 | Overcast | SCT013 BKN024 OVC065 | 78.8 | 75.2 | 89% | 82 | 29.83 | 0.0 | ||||||
| 06 | 20:35 | SW 3 | 10.00 | Overcast | SCT015 BKN047 OVC100 | 78.8 | 75.2 | 89% | 82 | 29.82 | 0.0 | ||||||
| 06 | 20:15 | S 6 | 10.00 | Light Drizzle | BKN015 BKN026 OVC034 | 78.8 | 75.2 | 89% | 82 | 29.82 | 0.0 | ||||||
| 06 | 19:55 | S 5 | 10.00 | Overcast | BKN014 BKN020 OVC032 | 80.6 | 75.2 | 84% | 86 | 29.81 | 0.0 | ||||||
| 06 | 19:35 | Calm | 10.00 | Overcast | SCT016 BKN022 OVC044 | 80.6 | 75.2 | 84% | 86 | 29.8 | 0.0 | ||||||
| 06 | 19:15 | S 5 | 10.00 | Partly Cloudy | SCT043 | 80.6 | 73.4 | 79% | 85 | 29.8 | 0.0 | ||||||
| 06 | 18:55 | S 5 | 10.00 | Partly Cloudy | SCT017 | 82.4 | 73.4 | 74% | 88 | 29.79 | 0.0 | ||||||
| 06 | 18:35 | S 8 | 10.00 | Partly Cloudy | SCT020 SCT032 SCT090 | 82.4 | 73.4 | 74% | 88 | 29.79 | 0.0 | ||||||
| 06 | 18:15 | S 7 | 10.00 | Partly Cloudy | SCT022 SCT032 SCT090 | 82.4 | 73.4 | 74% | 88 | 29.79 | 0.0 | ||||||
| 06 | 17:55 | S 6 | 10.00 | Partly Cloudy | SCT022 SCT030 SCT090 | 84.2 | 73.4 | 70% | 91 | 29.78 | 0.0 | ||||||
| 06 | 17:35 | S 5 | 10.00 | Mostly Cloudy | SCT002 SCT023 BKN029 | 84.2 | 73.4 | 70% | 91 | 29.79 | 0.0 | ||||||
| 06 | 17:15 | S 9 | 10.00 | Overcast | SCT022 BKN030 OVC036 | 84.2 | 73.4 | 70% | 91 | 29.79 | 0.0 | ||||||
| 06 | 16:55 | S 8 | 10.00 | Overcast | BKN022 OVC031 | 84.2 | 73.4 | 70% | 91 | 29.8 | 0.0 | ||||||
| 06 | 16:35 | S 9 G 16 | 10.00 | Mostly Cloudy | BKN024 BKN100 | 84.2 | 73.4 | 70% | 91 | 29.8 | 0.0 | ||||||
| 06 | 16:15 | S 10 G 16 | 10.00 | Partly Cloudy | SCT100 | 84.2 | 73.4 | 70% | 91 | 29.8 | 0.0 | ||||||
| 06 | 15:55 | S 9 G 17 | 10.00 | Partly Cloudy | SCT100 | 86 | 73.4 | 66% | 93 | 29.8 | 0.0 | ||||||
| 06 | 15:35 | S 10 G 18 | 10.00 | Fair | CLR | 86 | 73.4 | 66% | 93 | 29.8 | 0.0 | ||||||
| 06 | 15:15 | S 6 | 10.00 | Partly Cloudy | SCT048 SCT080 | 84.2 | 73.4 | 70% | 91 | 29.82 | 0.0 | ||||||
| 06 | 14:55 | S 7 | 10.00 | Mostly Cloudy | SCT006 SCT029 BKN080 | 82.4 | 73.4 | 74% | 88 | 29.83 | 0.0 | ||||||
| 06 | 14:35 | S 7 | 10.00 | Mostly Cloudy | SCT021 BKN027 BKN033 | 84.2 | 73.4 | 70% | 91 | 29.84 | 0.0 | ||||||
| 06 | 14:15 | S 8 | 10.00 | Overcast | BKN019 OVC026 | 82.4 | 73.4 | 74% | 88 | 29.84 | 0.0 | ||||||
| 06 | 13:55 | SE 8 | 10.00 | Overcast | BKN017 BKN022 OVC027 | 84.2 | 73.4 | 70% | 91 | 29.84 | 0.0 | ||||||
| 06 | 13:35 | S 8 | 10.00 | Overcast | BKN015 OVC020 | 84.2 | 73.4 | 70% | 91 | 29.86 | 0.0 | ||||||
| 06 | 13:15 | S 6 | 10.00 | Overcast | BKN015 OVC020 | 82.4 | 73.4 | 74% | 88 | 29.88 | 0.0 | ||||||
| 06 | 12:55 | S 8 | 10.00 | Overcast | SCT013 BKN022 OVC028 | 82.4 | 73.4 | 74% | 88 | 29.88 | 0.0 | ||||||
| 06 | 12:35 | S 6 | 10.00 | Overcast | BKN011 BKN018 OVC029 | 80.6 | 73.4 | 79% | 85 | 29.89 | 0.0 | ||||||
| 06 | 12:15 | S 5 | 10.00 | Overcast | BKN011 OVC020 | 80.6 | 73.4 | 79% | 85 | 29.9 | 0.0 | ||||||
| 06 | 11:55 | E 3 | 10.00 | Overcast | BKN013 OVC018 | 78.8 | 73.4 | 84% | 82 | 29.9 | 0.0 | ||||||
| 06 | 11:35 | Calm | 10.00 | Overcast | OVC013 | 77 | 73.4 | 89% | 78 | 29.9 | 0.0 | ||||||
| 06 | 11:15 | E 3 | 10.00 | Overcast | OVC011 | 77 | 73.4 | 89% | 78 | 29.9 | 0.0 | ||||||
| 06 | 10:55 | Calm | 10.00 | Overcast | OVC011 | 77 | 73.4 | 89% | 78 | 29.9 | 0.0 | ||||||
| 06 | 10:35 | Calm | 7.00 | Overcast | SCT011 BKN017 OVC034 | 77 | 73.4 | 89% | 78 | 29.89 | 0.0 | ||||||
| 06 | 10:15 | Calm | 10.00 | Overcast | SCT015 SCT019 OVC035 | 77 | 73.4 | 89% | 78 | 29.89 | 0.0 | ||||||
| 06 | 09:55 | Calm | 10.00 | Overcast | SCT015 SCT021 OVC033 | 77 | 71.6 | 83% | 78 | 29.88 | 0.0 | ||||||
| 06 | 09:35 | Calm | 10.00 | Overcast | SCT014 BKN027 OVC033 | 77 | 71.6 | 83% | 78 | 29.88 | 0.0 | ||||||
| 06 | 09:15 | Calm | 10.00 | Overcast | BKN010 BKN014 OVC021 | 75.2 | 71.6 | 89% | 75 | 29.88 | 0.0 | ||||||
| 06 | 08:55 | Calm | 7.00 | Overcast | OVC008 | 75.2 | 71.6 | 89% | 75 | 29.88 | 0.0 | ||||||
| 06 | 08:35 | Calm | 10.00 | Overcast | OVC008 | 75.2 | 71.6 | 89% | 75 | 29.88 | 0.0 | ||||||
| 06 | 08:15 | Calm | 10.00 | Overcast | OVC008 | 75.2 | 71.6 | 89% | 75 | 29.88 | 0.0 | ||||||
| 06 | 07:55 | Calm | 10.00 | Overcast | OVC006 | 75.2 | 71.6 | 89% | 75 | 29.87 | 0.0 | ||||||
| 06 | 07:35 | Calm | 10.00 | Overcast | OVC006 | 75.2 | 71.6 | 89% | 75 | 29.86 | 0.0 | ||||||
| 06 | 07:15 | Calm | 10.00 | Overcast | OVC006 | 75.2 | 71.6 | 89% | 75 | 29.85 | 0.0 | ||||||
| 06 | 06:55 | Calm | 10.00 | Overcast | OVC006 | 75.2 | 71.6 | 89% | 75 | 29.85 | 0.0 | ||||||
| 06 | 06:35 | Calm | 10.00 | Overcast | OVC008 | 75.2 | 71.6 | 89% | 75 | 29.85 | 0.0 | ||||||
| 06 | 06:15 | Calm | 10.00 | Overcast | OVC008 | 73.4 | 69.8 | 89% | 29.84 | 0.0 | |||||||
| 06 | 05:55 | Calm | 10.00 | Overcast | OVC008 | 73.4 | 69.8 | 89% | 29.84 | 0.0 | |||||||
| 06 | 05:35 | S 3 | 10.00 | Overcast | OVC008 | 73.4 | 69.8 | 89% | 29.83 | 0.0 | |||||||
| 06 | 05:15 | SE 3 | 10.00 | Overcast | OVC008 | 73.4 | 69.8 | 89% | 29.83 | 0.0 | |||||||
| 06 | 04:55 | Calm | 10.00 | Overcast | OVC008 | 73.4 | 69.8 | 89% | 29.83 | 0.0 | |||||||
| 06 | 04:35 | Calm | 10.00 | Overcast | OVC008 | 73.4 | 69.8 | 89% | 29.83 | 0.0 | |||||||
| 06 | 04:15 | Calm | 10.00 | Overcast | OVC008 | 73.4 | 69.8 | 89% | 29.84 | 0.0 | |||||||
| 06 | 03:55 | Calm | 10.00 | Overcast | BKN008 OVC013 | 73.4 | 69.8 | 89% | 29.84 | 0.0 | |||||||
| 06 | 03:35 | Calm | 10.00 | Overcast | BKN010 OVC017 | 73.4 | 69.8 | 89% | 29.84 | 0.0 | |||||||
| 06 | 03:15 | Calm | 10.00 | Overcast | BKN015 OVC023 | 73.4 | 69.8 | 89% | 29.85 | 0.0 | |||||||
| 06 | 02:55 | Calm | 10.00 | Overcast | BKN017 OVC023 | 73.4 | 69.8 | 89% | 29.85 | 0.0 | |||||||
| 06 | 02:35 | Calm | 10.00 | Overcast | SCT011 BKN018 OVC044 | 73.4 | 69.8 | 89% | 29.84 | 0.0 | |||||||
| 06 | 02:15 | Calm | 10.00 | Overcast | BKN013 OVC019 | 73.4 | 69.8 | 89% | 29.85 | 0.0 | |||||||
| 06 | 01:55 | Calm | 10.00 | Overcast | BKN011 BKN016 OVC027 | 73.4 | 69.8 | 89% | 29.85 | 0.0 | |||||||
| 06 | 01:35 | Calm | 10.00 | Overcast | BKN011 BKN017 OVC029 | 75.2 | 69.8 | 83% | 75 | 29.85 | 0.0 | ||||||
| 06 | 01:15 | Calm | 10.00 | Overcast | BKN011 OVC022 | 75.2 | 69.8 | 83% | 75 | 29.86 | 0.0 | ||||||
| 06 | 00:55 | S 3 | 10.00 | Overcast | BKN011 BKN019 OVC024 | 75.2 | 69.8 | 83% | 75 | 29.85 | 0.0 | ||||||
| 06 | 00:35 | S 5 | 10.00 | Overcast | BKN011 BKN017 OVC022 | 75.2 | 69.8 | 83% | 75 | 29.85 | 0.0 | ||||||
| 06 | 00:15 | S 5 | 10.00 | Overcast | SCT011 SCT018 OVC022 | 75.2 | 69.8 | 83% | 75 | 29.86 | 0.0 | ||||||
| 05 | 23:55 | S 6 | 10.00 | Overcast | SCT013 OVC022 | 75.2 | 69.8 | 83% | 75 | 29.86 | 0.0 | ||||||
| 05 | 23:35 | S 5 | 10.00 | Overcast | BKN013 OVC022 | 75.2 | 69.8 | 83% | 75 | 29.86 | 0.0 | ||||||
| 05 | 23:15 | S 5 | 10.00 | Overcast | BKN013 BKN018 OVC023 | 75.2 | 69.8 | 83% | 75 | 29.86 | 0.0 | ||||||
| 05 | 22:55 | S 5 | 10.00 | Overcast | SCT013 OVC021 | 75.2 | 69.8 | 83% | 75 | 29.85 | 0.0 | ||||||
| 05 | 22:35 | S 5 | 10.00 | Overcast | SCT014 OVC023 | 75.2 | 69.8 | 83% | 75 | 29.85 | 0.0 | ||||||
| 05 | 22:15 | S 3 | 10.00 | Overcast | BKN014 OVC021 | 75.2 | 69.8 | 83% | 75 | 29.84 | 0.0 | ||||||
| 05 | 21:55 | S 6 | 10.00 | Overcast | BKN017 BKN022 OVC050 | 77 | 69.8 | 79% | 79 | 29.83 | 0.0 | ||||||
| 05 | 21:35 | S 5 | 10.00 | Overcast | BKN017 OVC048 | 77 | 69.8 | 79% | 79 | 29.83 | 0.0 | ||||||
| 05 | 21:15 | S 6 | 10.00 | Overcast | SCT017 SCT040 OVC048 | 77 | 69.8 | 79% | 79 | 29.82 | 0.0 | ||||||
| 05 | 20:55 | S 7 | 10.00 | Overcast | SCT017 SCT040 OVC048 | 77 | 69.8 | 79% | 79 | 29.81 | 0.0 | ||||||
| 05 | 20:35 | S 5 | 10.00 | Overcast | BKN017 OVC048 | 77 | 69.8 | 79% | 79 | 29.81 | 0.0 | ||||||
| 05 | 20:15 | S 6 | 10.00 | Overcast | BKN017 BKN024 OVC048 | 77 | 69.8 | 79% | 79 | 29.81 | 0.0 | ||||||
| 05 | 19:55 | S 6 | 10.00 | Overcast | SCT019 BKN024 OVC050 | 77 | 69.8 | 79% | 79 | 29.8 | 0.0 | ||||||
| 05 | 19:35 | S 7 | 10.00 | Overcast | SCT018 SCT023 OVC050 | 77 | 69.8 | 79% | 79 | 29.79 | 0.0 | ||||||
| 05 | 19:15 | S 7 | 10.00 | Overcast | BKN018 BKN023 OVC050 | 77 | 69.8 | 79% | 79 | 29.79 | 0.0 | ||||||
| 05 | 18:55 | S 5 | 10.00 | Overcast | BKN020 BKN024 OVC050 | 77 | 69.8 | 79% | 79 | 29.8 | 0.0 | ||||||
| 05 | 18:35 | S 6 | 10.00 | Overcast | OVC021 | 78.8 | 69.8 | 74% | 81 | 29.8 | 0.0 | ||||||
| 05 | 18:15 | S 9 | 10.00 | Overcast | BKN019 BKN027 OVC033 | 78.8 | 69.8 | 74% | 81 | 29.8 | 0.0 | ||||||
| 05 | 17:55 | S 8 | 10.00 | Overcast | BKN019 OVC034 | 78.8 | 69.8 | 74% | 81 | 29.79 | 0.0 | ||||||
| 05 | 17:35 | S 7 | 10.00 | Overcast | SCT021 BKN027 OVC040 | 78.8 | 69.8 | 74% | 81 | 29.8 | 0.0 | ||||||
| 05 | 17:15 | S 7 | 10.00 | Overcast | BKN023 BKN032 OVC038 | 78.8 | 69.8 | 74% | 81 | 29.8 | 0.0 | ||||||
| 05 | 16:55 | S 7 | 10.00 | Overcast | BKN023 OVC031 | 78.8 | 69.8 | 74% | 81 | 29.81 | 0.0 | ||||||
| 05 | 16:35 | S 6 | 10.00 | Overcast | BKN023 OVC034 | 78.8 | 69.8 | 74% | 81 | 29.81 | 0.0 | ||||||
| 05 | 16:15 | S 5 | 10.00 | Overcast | BKN025 BKN034 OVC044 | 78.8 | 69.8 | 74% | 81 | 29.82 | 0.0 | ||||||
| 05 | 15:55 | S 6 | 10.00 | Overcast | SCT024 BKN029 OVC042 | 78.8 | 69.8 | 74% | 81 | 29.82 | 0.0 | ||||||
| 05 | 15:35 | S 7 | 10.00 | Overcast | BKN028 OVC036 | 78.8 | 69.8 | 74% | 81 | 29.82 | 0.0 | ||||||
| 05 | 15:15 | S 8 | 10.00 | Overcast | SCT026 BKN032 OVC046 | 78.8 | 69.8 | 74% | 81 | 29.83 | 0.0 | ||||||
| 05 | 14:55 | S 12 G 17 | 10.00 | Overcast | SCT032 BKN037 OVC050 | 78.8 | 69.8 | 74% | 81 | 29.83 | 0.0 | ||||||
| 05 | 14:35 | S 8 | 10.00 | Overcast | SCT024 BKN030 OVC050 | 80.6 | 69.8 | 70% | 84 | 29.84 | 0.0 | ||||||
| 05 | 14:15 | S 10 | 10.00 | Overcast | SCT026 BKN033 OVC041 | 80.6 | 68 | 66% | 83 | 29.83 | 0.0 | ||||||
| 05 | 13:55 | S 14 | 10.00 | Overcast | SCT023 BKN034 OVC050 | 80.6 | 69.8 | 70% | 84 | 29.84 | 0.0 | ||||||
| 05 | 13:35 | S 6 | 10.00 | Overcast | SCT024 BKN033 OVC040 | 78.8 | 69.8 | 74% | 81 | 29.84 | 0.0 | ||||||
| 05 | 13:15 | S 5 | 10.00 | Overcast | SCT026 BKN042 OVC048 | 80.6 | 69.8 | 70% | 84 | 29.85 | 0.0 | ||||||
| 05 | 12:55 | S 7 | 10.00 | Overcast | BKN028 OVC035 | 78.8 | 68 | 70% | 81 | 29.85 | 0.0 | ||||||
| 05 | 12:35 | S 5 | 10.00 | Overcast | SCT024 OVC031 | 78.8 | 68 | 70% | 81 | 29.86 | 0.0 | ||||||
| 05 | 12:15 | S 7 | 10.00 | Overcast | SCT024 BKN030 OVC038 | 78.8 | 68 | 70% | 81 | 29.85 | 0.0 | ||||||
| 05 | 11:55 | S 12 G 18 | 10.00 | Overcast | SCT024 BKN030 OVC038 | 78.8 | 68 | 70% | 81 | 29.85 | 0.0 | ||||||
| 05 | 11:35 | S 7 | 10.00 | Overcast | BKN022 OVC032 | 78.8 | 68 | 70% | 81 | 29.85 | 0.0 | ||||||
| 05 | 11:15 | S 10 | 10.00 | Overcast | SCT020 BKN027 OVC032 | 78.8 | 68 | 70% | 81 | 29.85 | 0.0 | ||||||
| 05 | 10:55 | S 6 | 10.00 | Overcast | BKN020 BKN027 OVC032 | 77 | 68 | 74% | 79 | 29.86 | 0.0 | ||||||
| 05 | 10:35 | S 8 | 10.00 | Overcast | SCT018 SCT024 OVC034 | 77 | 66.2 | 69% | 79 | 29.86 | 0.0 | ||||||
| 05 | 10:15 | S 9 | 10.00 | Overcast | SCT020 BKN028 OVC034 | 77 | 66.2 | 69% | 79 | 29.86 | 0.0 | ||||||
| 05 | 09:55 | S 7 | 10.00 | Overcast | OVC020 | 75.2 | 66.2 | 74% | 77 | 29.86 | 0.0 | ||||||
| 05 | 09:35 | S 9 G 16 | 10.00 | Mostly Cloudy | SCT020 BKN024 BKN036 | 77 | 66.2 | 69% | 79 | 29.86 | 0.0 | ||||||
| 05 | 09:15 | S 9 G 16 | 10.00 | Mostly Cloudy | SCT033 BKN039 BKN049 | 75.2 | 66.2 | 74% | 77 | 29.86 | 0.0 | ||||||
| 05 | 08:55 | S 7 | 10.00 | Mostly Cloudy | BKN037 | 75.2 | 66.2 | 74% | 77 | 29.86 | 0.0 | ||||||
| 05 | 08:35 | S 6 | 10.00 | Overcast | OVC035 | 71.6 | 64.4 | 78% | 29.85 | 0.0 | |||||||
| 05 | 08:15 | S 3 | 10.00 | Overcast | OVC035 | 71.6 | 64.4 | 78% | 29.85 | 0.0 | |||||||
| 05 | 07:55 | Calm | 10.00 | Overcast | OVC035 | 69.8 | 64.4 | 83% | 29.86 | 0.0 | |||||||
| 05 | 07:35 | S 3 | 10.00 | Overcast | BKN030 OVC036 | 69.8 | 62.6 | 78% | 29.85 | 0.0 | |||||||
| 05 | 07:15 | Calm | 10.00 | Overcast | OVC032 | 68 | 62.6 | 83% | 29.85 | 0.0 | |||||||
| 05 | 06:55 | SE 5 | 10.00 | Overcast | OVC034 | 68 | 62.6 | 83% | 29.84 | 0.0 | |||||||
| 05 | 06:35 | S 5 | 10.00 | Overcast | OVC034 | 68 | 62.6 | 83% | 29.84 | 0.0 | |||||||
| Date | Time (cdt) | Wind (mph) | Vis. (mi.) | Weather | Sky Cond. | Air | Dwpt | Max. | Min. | Relative Humidity | Wind Chill (°F) | Heat Index (°F) | altimeter (in) | sea level (mb) | 1 hr | 3 hr | 6 hr |
| 6 hour | |||||||||||||||||
| Temperature (ºF) | Pressure | Precipitation (in) | |||||||||||||||